#timestamp,LO_Frequency,Hit,StdDev 
1648486815.6,286046997.9,N
1648486835.4,286046995.0,Y
1648486855.2,286046999.3,P
1648486875.1,286046998.2,N
1648486876.0,286046998.2,N
1648486895.8,286047000.5,N
1648486915.7,286047000.9,N
1648486935.5,286046998.9,N
1648486955.3,286046998.9,N
1648486975.2,286046999.3,N
1648486995.0,286046999.5,N
1648486995.9,286046999.5,N
1648487015.8,286046998.2,N
1648487035.6,286047000.4,N
1648487055.4,286046998.3,N
1648487075.3,286046998.8,N
1648487095.1,286046998.3,N
1648487115.9,286046998.5,N
1648487135.7,286046998.3,N
1648487155.5,286046999.3,N
1648487175.4,286046999.6,N
1648487195.2,286046998.9,N
1648487215.0,286047000.5,N
1648487216.0,286047000.5,N
1648487235.8,286046998.2,N
1648487255.6,286046999.3,N
1648487275.5,286046996.7,Y
1648487295.3,286046998.1,P
1648487315.1,286047001.2,N
1648487335.9,286046997.1,N
1648487355.7,286046998.1,N
1648487375.6,286046997.2,N
1648487395.4,286046997.1,N
1648487415.2,286046995.4,Y
1648487435.1,286046999.4,P
1648487436.0,286046999.4,N
1648487455.8,286046998.5,N
1648487505.7,286046999.4,E
1648487515.6,286046998.3,N
1648487535.4,286046998.3,P
1648487555.3,286046998.5,P
1648487575.1,286047001.2,Y
1648487595.9,286047002.8,P
1648487615.7,286047000.6,N
1648487635.5,286046999.8,N
1648487655.4,286047002.3,N
1648487675.2,286046999.7,N
1648487695.0,286047002.8,N
1648487696.0,286047002.8,N
1648487715.8,286047002.1,N
1648487735.6,286047001.7,N
1648487755.5,286047000.1,N
1648487775.3,286047002.8,N
1648487795.1,286047002.4,N
1648487815.9,286047000.1,N
1648487835.7,286047000.6,N
1648487855.6,286047002.6,N
1648487875.4,286047002.4,N
1648487895.2,286047002.2,N
1648487915.1,286047004.1,Y
1648487916.0,286047004.1,P
1648487935.8,286047000.4,N
1648487955.7,286047000.0,N
1648487975.5,286046999.7,N
1648487995.3,286046999.7,N
1648488015.2,286047000.4,N
1648488035.0,286047000.7,N
1648488035.9,286047000.7,N
1648488055.8,286047000.3,N
1648488075.6,286047000.3,N
1648488095.4,286046998.4,N
1648488115.3,286046998.2,N
1648488135.1,286046998.7,N
1648488155.8,286046999.3,N
1648488175.7,286046999.2,N
1648488195.5,286046999.4,N
1648488215.3,286046997.0,N
1648488235.2,286046999.0,N
1648488255.0,286046999.0,N
1648488255.9,286046999.0,N
1648488275.8,286047000.8,N
1648488295.6,286046998.1,N
1648488315.4,286047000.4,N
1648488335.3,286047001.1,N
1648488355.1,286046999.0,N
1648488375.9,286046998.2,N
1648488395.7,286046998.6,N
1648488415.5,286046996.7,N
1648488435.4,286046996.7,N
1648488455.2,286046999.4,N
1648488475.0,286046998.6,N
1648488475.9,286046998.6,N
1648488495.8,286046999.9,N
1648488515.6,286047002.8,N
1648488535.5,286047000.6,N
1648488555.3,286047000.2,N
1648488575.1,286046998.6,N
1648488595.9,286046998.3,N
1648488615.7,286046999.8,N
1648488635.5,286047002.8,N
1648488655.4,286047002.4,N
1648488675.2,286047002.5,N
1648488695.1,286047002.1,N
1648488696.0,286047002.1,N
1648488715.8,286047001.6,N
1648488735.6,286047002.4,N
1648488755.5,286047002.2,N
1648488775.3,286047001.9,N
1648488795.1,286047004.0,N
1648488815.9,286047002.5,N
1648488835.7,286047002.2,N
1648488855.6,286047004.2,N
1648488875.4,286047003.9,N
1648488895.2,286047001.3,N
1648488915.1,286047005.5,N
1648488916.0,286047005.5,N
1648488935.8,286047005.8,N
1648488955.6,286047003.5,N
1648488975.5,286047003.5,N
1648488995.3,286047002.9,N
1648489015.2,286047003.9,N
1648489035.9,286047003.0,N
1648489055.7,286047005.9,Y
1648489075.6,286047001.7,P
1648489095.4,286047001.3,P
1648489115.2,286047002.6,P
1648489135.1,286047000.4,N
1648489136.0,286047000.4,N
1648489155.8,286047002.1,N
1648489175.7,286047002.2,N
1648489195.5,286047002.0,N
1648489215.3,286046999.8,N
1648489235.2,286047000.0,N
1648489255.0,286047002.5,N
1648489255.9,286047002.5,N
1648489275.8,286047000.0,N
1648489295.6,286047001.1,N
1648489315.4,286047000.7,N
1648489335.3,286047000.4,N
1648489355.1,286047000.0,N
1648489375.8,286047001.7,N
1648489395.7,286047002.4,N
1648489415.5,286047001.8,N
1648489435.4,286047000.2,N
1648489455.2,286046999.9,N
1648489475.0,286047002.1,N
1648489475.9,286047002.1,N
1648489495.8,286047002.2,N
1648489515.6,286047002.1,N
1648489535.4,286047001.1,N
1648489555.3,286047000.7,N
1648489575.1,286047001.2,N
1648489595.9,286047000.7,N
1648489615.7,286047001.0,N
1648489635.5,286047000.8,N
1648489655.4,286047000.6,N
1648489675.2,286047000.7,N
1648489695.0,286047000.5,N
1648489695.9,286047000.5,N
1648489715.8,286047000.0,N
1648489735.6,286046999.8,N
1648489755.5,286047000.3,N
1648489775.3,286047002.3,N
1648489795.1,286047001.0,N
1648489815.9,286047000.4,N
1648489835.7,286047001.1,N
1648489855.5,286046999.8,N
1648489875.4,286046998.1,N
1648489895.2,286047001.2,N
1648489915.1,286047001.5,N
1648489916.0,286047001.5,N
1648489935.8,286047000.2,N
1648489955.6,286047002.4,N
1648489975.5,286047002.4,N
1648489995.3,286046999.7,N
1648490015.2,286047002.8,N
1648490035.9,286047001.9,N
1648490055.7,286047001.5,N
1648490075.6,286047001.9,N
1648490095.4,286047002.5,N
1648490115.2,286047002.9,N
1648490135.1,286047003.1,N
1648490136.0,286047003.1,N
1648490155.8,286047003.9,Y
1648490175.7,286047002.3,P
1648490195.5,286047000.0,N
1648490215.3,286047002.1,N
1648490235.2,286046999.7,N
1648490255.0,286047002.3,N
1648490255.9,286047002.3,N
1648490275.7,286047002.2,N
1648490295.6,286047002.1,N
1648490315.4,286047001.7,N
1648490335.3,286047003.3,Y
1648490355.1,286046999.7,P
1648490375.8,286047000.2,N
1648490395.7,286047000.3,N
